| time (UTC) | temp C | wind direction | speed KPH | gust KPH | rain 1hr cm | rain 24hr cm | rain mn cm | humidity % | barometer mb |
| 20260906193058 | 16 | 162 | 0.0 | 0.0 | 0.00 | 0.00 | 0.00 | 70 | 1024.1 |
| 20260906192556 | 16 | 162 | 0.0 | 0.0 | 0.00 | 0.00 | 0.00 | 70 | 1024.2 |
| 20260906192056 | 16 | 162 | 0.0 | 0.0 | 0.00 | 0.00 | 0.00 | 68 | 1024.1 |
| 20260906191556 | 16 | 162 | 0.0 | 0.0 | 0.00 | 0.00 | 0.00 | 66 | 1024.2 |
| 20260906191055 | 17 | 162 | 0.0 | 0.0 | 0.00 | 0.00 | 0.00 | 65 | 1024.2 |
| 20260906190556 | 17 | 162 | 0.0 | 0.0 | 0.00 | 0.00 | 0.00 | 65 | 1024.2 |
| 20260906190112 | 17 | 162 | 0.0 | 0.0 | 0.00 | 0.00 | 0.00 | 65 | 1024.2 |
| 20260906185555 | 17 | 162 | 0.0 | 0.0 | 0.00 | 0.00 | 0.00 | 67 | 1024.1 |
| 20260906185055 | 17 | 162 | 0.0 | 0.0 | 0.00 | 0.00 | 0.00 | 65 | 1024.1 |
| 20260906184556 | 17 | 162 | 0.0 | 0.0 | 0.00 | 0.00 | 0.00 | 65 | 1024.1 |
| 20260906184056 | 17 | 162 | 0.0 | 0.0 | 0.00 | 0.00 | 0.00 | 64 | 1024.2 |
| 20260906183557 | 17 | 162 | 0.0 | 0.0 | 0.00 | 0.00 | 0.00 | 64 | 1024.1 |
| 20260906183058 | 17 | 162 | 0.0 | 0.0 | 0.00 | 0.00 | 0.00 | 64 | 1024.1 |
| 20260906182556 | 18 | 162 | 0.0 | 0.0 | 0.00 | 0.00 | 0.00 | 62 | 1024.0 |
| 20260906182054 | 18 | 162 | 0.0 | 0.0 | 0.00 | 0.00 | 0.00 | 60 | 1024.0 |
| 20260906181554 | 19 | 162 | 0.0 | 0.0 | 0.00 | 0.00 | 0.00 | 58 | 1024.0 |
| 20260906181054 | 19 | 162 | 0.0 | 0.0 | 0.00 | 0.00 | 0.00 | 57 | 1024.0 |
| 20260906180554 | 19 | 162 | 0.0 | 0.0 | 0.00 | 0.00 | 0.00 | 56 | 1024.1 |
| 20260906180054 | 20 | 162 | 0.0 | 0.0 | 0.00 | 0.00 | 0.00 | 56 | 1024.1 |
| 20260906175554 | 20 | 162 | 0.0 | 0.0 | 0.00 | 0.00 | 0.00 | 57 | 1024.1 |
| 20260906175056 | 20 | 162 | 0.0 | 0.0 | 0.00 | 0.00 | 0.00 | 59 | 1024.0 |
| 20260906174553 | 21 | 162 | 0.0 | 0.0 | 0.00 | 0.00 | 0.00 | 54 | 1024.1 |
| 20260906174053 | 21 | 162 | 0.0 | 0.0 | 0.00 | 0.00 | 0.00 | 52 | 1024.0 |
| 20260906173552 | 22 | 162 | 0.0 | 0.0 | 0.00 | 0.00 | 0.00 | 48 | 1024.0 |
| 20260906173053 | 22 | 162 | 0.0 | 0.0 | 0.00 | 0.00 | 0.00 | 47 | 1024.1 |
| 20260906172556 | 22 | 162 | 0.0 | 0.0 | 0.00 | 0.00 | 0.00 | 46 | 1024.1 |
| 20260906172051 | 22 | 162 | 0.0 | 0.0 | 0.00 | 0.00 | 0.00 | 45 | 1024.1 |
| 20260906171554 | 23 | 162 | 0.0 | 0.0 | 0.00 | 0.00 | 0.00 | 44 | 1024.2 |
| 20260906171051 | 23 | 162 | 0.0 | 0.0 | 0.00 | 0.00 | 0.00 | 41 | 1024.1 |
| 20260906170550 | 23 | 162 | 0.0 | 0.0 | 0.00 | 0.00 | 0.00 | 41 | 1024.1 |
| 20260906170055 | 23 | 162 | 0.0 | 0.0 | 0.00 | 0.00 | 0.00 | 44 | 1024.2 |
| 20260906165551 | 23 | 162 | 0.0 | 1.6 | 0.00 | 0.00 | 0.00 | 42 | 1024.4 |
| 20260906165052 | 23 | 162 | 0.0 | 1.6 | 0.00 | 0.00 | 0.00 | 41 | 1024.3 |
| 20260906164550 | 23 | 162 | 0.0 | 1.6 | 0.00 | 0.00 | 0.00 | 40 | 1024.2 |
| 20260906164049 | 23 | 162 | 0.0 | 0.0 | 0.00 | 0.00 | 0.00 | 39 | 1024.4 |
| 20260906163550 | 23 | 162 | 0.0 | 0.0 | 0.00 | 0.00 | 0.00 | 41 | 1024.4 |
| 20260906163050 | 23 | 162 | 0.0 | 1.6 | 0.00 | 0.00 | 0.00 | 39 | 1024.5 |
| 20260906162549 | 23 | 162 | 0.0 | 4.8 | 0.00 | 0.00 | 0.00 | 38 | 1024.3 |
| 20260906162048 | 24 | 162 | 1.6 | 6.4 | 0.00 | 0.00 | 0.00 | 38 | 1024.5 |
| 20260906161548 | 24 | 162 | 1.6 | 9.7 | 0.00 | 0.00 | 0.00 | 36 | 1024.5 |
| 20260906161048 | 24 | 162 | 1.6 | 9.7 | 0.00 | 0.00 | 0.00 | 39 | 1024.6 |
| 20260906160546 | 24 | 162 | 1.6 | 8.0 | 0.00 | 0.00 | 0.00 | 36 | 1024.6 |
| 20260906155546 | 24 | 161 | 4.8 | 9.7 | 0.00 | 0.00 | 0.00 | 37 | 1024.9 |
| 20260906155044 | 24 | 160 | 1.6 | 9.7 | 0.00 | 0.00 | 0.00 | 39 | 1024.9 |
| 20260906154555 | 23 | 160 | 1.6 | 9.7 | 0.00 | 0.00 | 0.00 | 38 | 1024.9 |
| 20260906154045 | 24 | 161 | 0.0 | 4.8 | 0.00 | 0.00 | 0.00 | 38 | 1024.9 |
| 20260906153544 | 24 | 161 | 3.2 | 4.8 | 0.00 | 0.00 | 0.00 | 39 | 1025.0 |
| 20260906153044 | 23 | 161 | 1.6 | 4.8 | 0.00 | 0.00 | 0.00 | 38 | 1024.9 |
| 20260906152545 | 23 | 161 | 0.0 | 0.0 | 0.00 | 0.00 | 0.00 | 39 | 1024.9 |
| 20260906152043 | 23 | 161 | 0.0 | 3.2 | 0.00 | 0.00 | 0.00 | 44 | 1024.9 |
| 20260906151543 | 23 | 161 | 0.0 | 4.8 | 0.00 | 0.00 | 0.00 | 39 | 1025.1 |
| 20260906151042 | 23 | 161 | 0.0 | 4.8 | 0.00 | 0.00 | 0.00 | 38 | 1025.1 |
| 20260906150542 | 23 | 161 | 0.0 | 9.7 | 0.00 | 0.00 | 0.00 | 39 | 1025.2 |
| 20260906150043 | 23 | 161 | 1.6 | 9.7 | 0.00 | 0.00 | 0.00 | 38 | 1025.2 |
| 20260906145540 | 23 | 159 | 1.6 | 4.8 | 0.00 | 0.00 | 0.00 | 37 | 1025.3 |
| 20260906145040 | 23 | 159 | 1.6 | 8.0 | 0.00 | 0.00 | 0.00 | 40 | 1025.4 |
| 20260906144539 | 23 | 159 | 3.2 | 8.0 | 0.00 | 0.00 | 0.00 | 37 | 1025.6 |
| 20260906144039 | 23 | 159 | 0.0 | 9.7 | 0.00 | 0.00 | 0.00 | 37 | 1025.6 |
| 20260906143538 | 23 | 159 | 3.2 | 9.7 | 0.00 | 0.00 | 0.00 | 36 | 1025.6 |
| 20260906143039 | 24 | 177 | 4.8 | 8.0 | 0.00 | 0.00 | 0.00 | 35 | 1025.6 |
| 20260906142537 | 24 | 188 | 0.0 | 6.4 | 0.00 | 0.00 | 0.00 | 35 | 1025.7 |
| 20260906142037 | 23 | 185 | 1.6 | 6.4 | 0.00 | 0.00 | 0.00 | 35 | 1025.8 |
| 20260906141536 | 23 | 182 | 1.6 | 9.7 | 0.00 | 0.00 | 0.00 | 35 | 1025.8 |
| 20260906141036 | 24 | 182 | 4.8 | 9.7 | 0.00 | 0.00 | 0.00 | 35 | 1025.9 |
| 20260906140536 | 24 | 190 | 0.0 | 4.8 | 0.00 | 0.00 | 0.00 | 39 | 1025.9 |
| 20260906140034 | 25 | 190 | 0.0 | 4.8 | 0.00 | 0.00 | 0.00 | 36 | 1026.0 |
| 20260906135534 | 24 | 190 | 1.6 | 6.4 | 0.00 | 0.00 | 0.00 | 38 | 1026.0 |
| 20260906135034 | 23 | 190 | 1.6 | 8.0 | 0.00 | 0.00 | 0.00 | 39 | 1026.1 |
| 20260906134543 | 23 | 184 | 1.6 | 9.7 | 0.00 | 0.00 | 0.00 | 40 | 1026.1 |
| 20260906134033 | 24 | 177 | 4.8 | 11.3 | 0.00 | 0.00 | 0.00 | 37 | 1026.1 |
| 20260906133531 | 24 | 173 | 8.0 | 11.3 | 0.00 | 0.00 | 0.00 | 38 | 1026.1 |
| 20260906133049 | 23 | 132 | 1.6 | 11.3 | 0.00 | 0.00 | 0.00 | 38 | 1026.1 |
| 20260906132532 | 23 | 134 | 4.8 | 12.9 | 0.00 | 0.00 | 0.00 | 38 | 1026.2 |
| 20260906132031 | 23 | 134 | 6.4 | 12.9 | 0.00 | 0.00 | 0.00 | 38 | 1026.3 |
| 20260906131532 | 23 | 165 | 6.4 | 9.7 | 0.00 | 0.00 | 0.00 | 38 | 1026.2 |
| 20260906131029 | 24 | 191 | 3.2 | 6.4 | 0.00 | 0.00 | 0.00 | 44 | 1026.3 |
| 20260906130529 | 24 | 191 | 3.2 | 6.4 | 0.00 | 0.00 | 0.00 | 42 | 1026.4 |
| 20260906130031 | 23 | 188 | 1.6 | 6.4 | 0.00 | 0.00 | 0.00 | 40 | 1026.6 |
| 20260906125528 | 24 | 188 | 3.2 | 8.0 | 0.00 | 0.00 | 0.00 | 41 | 1026.6 |
| 20260906125027 | 23 | 188 | 1.6 | 8.0 | 0.00 | 0.00 | 0.00 | 42 | 1026.8 |
| 20260906124525 | 22 | 190 | 1.6 | 8.0 | 0.00 | 0.00 | 0.00 | 44 | 1026.8 |
| 20260906124026 | 23 | 191 | 3.2 | 14.5 | 0.00 | 0.00 | 0.00 | 44 | 1026.8 |
| 20260906123524 | 23 | 188 | 8.0 | 14.5 | 0.00 | 0.00 | 0.00 | 44 | 1026.9 |
| 20260906123030 | 22 | 190 | 3.2 | 9.7 | 0.00 | 0.00 | 0.00 | 45 | 1026.9 |
| 20260906122524 | 22 | 160 | 4.8 | 9.7 | 0.00 | 0.00 | 0.00 | 44 | 1027.0 |
| 20260906122024 | 23 | 157 | 3.2 | 9.7 | 0.00 | 0.00 | 0.00 | 45 | 1027.1 |
| 20260906121527 | 23 | 148 | 0.0 | 6.4 | 0.00 | 0.00 | 0.00 | 45 | 1027.2 |
| 20260906121024 | 22 | 148 | 1.6 | 6.4 | 0.00 | 0.00 | 0.00 | 45 | 1027.2 |
| 20260906120524 | 22 | 146 | 1.6 | 8.0 | 0.00 | 0.00 | 0.00 | 46 | 1027.3 |
| 20260906120022 | 22 | 146 | 3.2 | 8.0 | 0.00 | 0.00 | 0.00 | 46 | 1027.4 |
| 20260906115526 | 22 | 142 | 3.2 | 12.9 | 0.00 | 0.00 | 0.00 | 47 | 1027.4 |
| 20260906115020 | 22 | 150 | 3.2 | 9.7 | 0.00 | 0.00 | 0.00 | 48 | 1027.4 |
| 20260906114521 | 22 | 126 | 1.6 | 8.0 | 0.00 | 0.00 | 0.00 | 47 | 1027.6 |
| 20260906114020 | 22 | 130 | 1.6 | 8.0 | 0.00 | 0.00 | 0.00 | 49 | 1027.6 |
| 20260906113520 | 21 | 131 | 1.6 | 11.3 | 0.00 | 0.00 | 0.00 | 48 | 1027.7 |
| 20260906113020 | 21 | 131 | 3.2 | 11.3 | 0.00 | 0.00 | 0.00 | 47 | 1027.8 |
| 20260906112520 | 22 | 145 | 4.8 | 9.7 | 0.00 | 0.00 | 0.00 | 47 | 1027.9 |
| 20260906112020 | 22 | 157 | 1.6 | 8.0 | 0.00 | 0.00 | 0.00 | 49 | 1027.9 |
| 20260906111519 | 21 | 157 | 1.6 | 8.0 | 0.00 | 0.00 | 0.00 | 49 | 1027.9 |
| 20260906111020 | 21 | 136 | 1.6 | 8.0 | 0.00 | 0.00 | 0.00 | 49 | 1027.9 |
| 20260906110520 | 21 | 142 | 3.2 | 8.0 | 0.00 | 0.00 | 0.00 | 49 | 1028.1 |
| 20260906110019 | 21 | 244 | 1.6 | 6.4 | 0.00 | 0.00 | 0.00 | 50 | 1028.1 |
| 20260906105519 | 21 | 239 | 1.6 | 11.3 | 0.00 | 0.00 | 0.00 | 51 | 1028.2 |
| 20260906105019 | 21 | 238 | 3.2 | 11.3 | 0.00 | 0.00 | 0.00 | 50 | 1028.2 |
| 20260906104522 | 21 | 225 | 0.0 | 6.4 | 0.00 | 0.00 | 0.00 | 51 | 1028.3 |
| 20260906104017 | 20 | 225 | 1.6 | 6.4 | 0.00 | 0.00 | 0.00 | 53 | 1028.3 |
| 20260906103516 | 20 | 225 | 0.0 | 6.4 | 0.00 | 0.00 | 0.00 | 53 | 1028.4 |
| 20260906103018 | 20 | 222 | 3.2 | 9.7 | 0.00 | 0.00 | 0.00 | 55 | 1028.4 |
| 20260906102515 | 20 | 247 | 4.8 | 11.3 | 0.00 | 0.00 | 0.00 | 55 | 1028.4 |
| 20260906102016 | 20 | 238 | 3.2 | 11.3 | 0.00 | 0.00 | 0.00 | 55 | 1028.5 |
| 20260906101526 | 20 | 272 | 1.6 | 6.4 | 0.00 | 0.00 | 0.00 | 54 | 1028.6 |
| 20260906101014 | 20 | 211 | 0.0 | 6.4 | 0.00 | 0.00 | 0.00 | 57 | 1028.6 |
| 20260906100514 | 19 | 208 | 0.0 | 9.7 | 0.00 | 0.00 | 0.00 | 57 | 1028.7 |
| 20260906100013 | 20 | 208 | 3.2 | 9.7 | 0.00 | 0.00 | 0.00 | 57 | 1028.7 |
| 20260906095512 | 19 | 207 | 3.2 | 8.0 | 0.00 | 0.00 | 0.00 | 59 | 1028.8 |
| 20260906095014 | 19 | 218 | 3.2 | 6.4 | 0.00 | 0.00 | 0.00 | 61 | 1028.8 |
| 20260906094511 | 18 | 214 | 0.0 | 6.4 | 0.00 | 0.00 | 0.00 | 61 | 1029.0 |
| 20260906094010 | 18 | 214 | 3.2 | 8.0 | 0.00 | 0.00 | 0.00 | 63 | 1029.0 |
| 20260906093513 | 18 | 215 | 1.6 | 8.0 | 0.00 | 0.00 | 0.00 | 63 | 1029.0 |
| 20260906093010 | 19 | 228 | 1.6 | 8.0 | 0.00 | 0.00 | 0.00 | 64 | 1029.0 |
| 20260906092511 | 18 | 153 | 1.6 | 8.0 | 0.00 | 0.00 | 0.00 | 63 | 1029.0 |
| 20260906092009 | 18 | 153 | 1.6 | 4.8 | 0.00 | 0.00 | 0.00 | 65 | 1029.1 |
| 20260906091508 | 18 | 153 | 0.0 | 4.8 | 0.00 | 0.00 | 0.00 | 65 | 1028.9 |
| 20260906091008 | 17 | 153 | 1.6 | 8.0 | 0.00 | 0.00 | 0.00 | 65 | 1028.9 |
| 20260906090508 | 17 | 153 | 1.6 | 8.0 | 0.00 | 0.00 | 0.00 | 67 | 1028.9 |
| 20260906090007 | 18 | 153 | 1.6 | 8.0 | 0.00 | 0.00 | 0.00 | 68 | 1028.9 |
| 20260906085506 | 17 | 116 | 1.6 | 6.4 | 0.00 | 0.00 | 0.00 | 67 | 1028.9 |
| 20260906085005 | 17 | 109 | 1.6 | 6.4 | 0.00 | 0.00 | 0.00 | 66 | 1029.0 |
| 20260906084504 | 17 | 106 | 1.6 | 9.7 | 0.00 | 0.00 | 0.00 | 69 | 1029.0 |
| 20260906084008 | 16 | 103 | 1.6 | 9.7 | 0.00 | 0.00 | 0.00 | 69 | 1029.0 |
| 20260906083503 | 16 | 90 | 1.6 | 9.7 | 0.00 | 0.00 | 0.00 | 73 | 1029.0 |
| 20260906083002 | 16 | 91 | 1.6 | 11.3 | 0.00 | 0.00 | 0.00 | 73 | 1029.1 |
| 20260906082502 | 16 | 92 | 4.8 | 11.3 | 0.00 | 0.00 | 0.00 | 72 | 1029.1 |
| 20260906082002 | 16 | 348 | 0.0 | 6.4 | 0.00 | 0.00 | 0.00 | 73 | 1029.1 |
| 20260906081600 | 16 | 347 | 1.6 | 8.0 | 0.00 | 0.00 | 0.00 | 75 | 1029.2 |
| 20260906081059 | 16 | 347 | 3.2 | 8.0 | 0.00 | 0.00 | 0.00 | 75 | 1029.1 |
| 20260906080558 | 15 | 347 | 0.0 | 8.0 | 0.00 | 0.00 | 0.00 | 76 | 1029.2 |
| 20260906080057 | 15 | 346 | 1.6 | 8.0 | 0.00 | 0.00 | 0.00 | 77 | 1029.1 |
| 20260906075556 | 15 | 347 | 3.2 | 4.8 | 0.00 | 0.00 | 0.00 | 76 | 1029.2 |
| 20260906075054 | 15 | 346 | 1.6 | 8.0 | 0.00 | 0.00 | 0.00 | 79 | 1029.1 |
| 20260906074554 | 15 | 346 | 4.8 | 8.0 | 0.00 | 0.00 | 0.00 | 79 | 1029.1 |
| 20260906074053 | 15 | 346 | 0.0 | 4.8 | 0.00 | 0.00 | 0.00 | 81 | 1029.1 |
| 20260906073553 | 14 | 345 | 1.6 | 6.4 | 0.00 | 0.00 | 0.00 | 82 | 1029.1 |
| 20260906073051 | 14 | 342 | 3.2 | 6.4 | 0.00 | 0.00 | 0.00 | 82 | 1029.1 |
| 20260906072552 | 14 | 341 | 0.0 | 6.4 | 0.00 | 0.00 | 0.00 | 84 | 1029.0 |
| 20260906072050 | 13 | 341 | 3.2 | 6.4 | 0.00 | 0.00 | 0.00 | 84 | 1029.0 |
| 20260906071550 | 13 | 340 | 3.2 | 6.4 | 0.00 | 0.00 | 0.00 | 85 | 1029.1 |
| 20260906071049 | 13 | 264 | 0.0 | 4.8 | 0.00 | 0.00 | 0.00 | 86 | 1029.0 |
| 20260906070548 | 13 | 263 | 0.0 | 3.2 | 0.00 | 0.00 | 0.00 | 87 | 1029.0 |
| 20260906070048 | 13 | 263 | 0.0 | 3.2 | 0.00 | 0.00 | 0.00 | 88 | 1029.0 |
| 20260906065548 | 12 | 263 | 0.0 | 3.2 | 0.00 | 0.00 | 0.00 | 90 | 1029.0 |
| 20260906065046 | 12 | 263 | 0.0 | 3.2 | 0.00 | 0.00 | 0.00 | 90 | 1029.1 |
| 20260906064547 | 11 | 263 | 0.0 | 3.2 | 0.00 | 0.00 | 0.00 | 91 | 1029.1 |
| 20260906064046 | 11 | 263 | 0.0 | 3.2 | 0.00 | 0.00 | 0.00 | 91 | 1029.1 |
| 20260906063549 | 11 | 264 | 0.0 | 0.0 | 0.00 | 0.00 | 0.00 | 92 | 1029.3 |
| 20260906063046 | 11 | 264 | 0.0 | 0.0 | 0.00 | 0.00 | 0.00 | 92 | 1029.3 |
| 20260906062545 | 11 | 264 | 0.0 | 1.6 | 0.00 | 0.00 | 0.00 | 93 | 1029.3 |
| 20260906062045 | 10 | 264 | 0.0 | 3.2 | 0.00 | 0.00 | 0.00 | 93 | 1029.2 |
| 20260906061546 | 10 | 264 | 0.0 | 3.2 | 0.00 | 0.00 | 0.00 | 93 | 1029.2 |
| 20260906061045 | 10 | 264 | 0.0 | 1.6 | 0.00 | 0.00 | 0.00 | 93 | 1029.2 |
| 20260906060547 | 10 | 264 | 0.0 | 1.6 | 0.00 | 0.00 | 0.00 | 94 | 1029.1 |
| 20260906060044 | 9 | 264 | 0.0 | 0.0 | 0.00 | 0.00 | 0.00 | 94 | 1029.1 |
| 20260906055543 | 9 | 264 | 0.0 | 0.0 | 0.00 | 0.00 | 0.00 | 94 | 1029.1 |
| 20260906055043 | 8 | 264 | 0.0 | 0.0 | 0.00 | 0.00 | 0.00 | 94 | 1029.0 |
| 20260906054547 | 8 | 264 | 0.0 | 1.6 | 0.00 | 0.00 | 0.00 | 94 | 1029.0 |
| 20260906054044 | 8 | 264 | 0.0 | 4.8 | 0.00 | 0.00 | 0.00 | 93 | 1028.8 |
| 20260906053541 | 8 | 264 | 1.6 | 4.8 | 0.00 | 0.00 | 0.00 | 94 | 1028.7 |
| 20260906053044 | 8 | 263 | 0.0 | 0.0 | 0.00 | 0.00 | 0.00 | 94 | 1028.8 |
| 20260906052544 | 7 | 263 | 0.0 | 0.0 | 0.00 | 0.00 | 0.00 | 93 | 1028.8 |
| 20260906052041 | 7 | 263 | 0.0 | 0.0 | 0.00 | 0.00 | 0.00 | 93 | 1028.8 |
| 20260906051539 | 7 | 263 | 0.0 | 0.0 | 0.00 | 0.00 | 0.00 | 93 | 1028.7 |
| 20260906051039 | 7 | 263 | 0.0 | 0.0 | 0.00 | 0.00 | 0.00 | 93 | 1028.6 |
| 20260906050541 | 7 | 263 | 0.0 | 0.0 | 0.00 | 0.00 | 0.00 | 93 | 1028.5 |
| 20260906050041 | 7 | 263 | 0.0 | 0.0 | 0.00 | 0.00 | 0.00 | 93 | 1028.5 |
| 20260906045537 | 8 | 263 | 0.0 | 0.0 | 0.00 | 0.00 | 0.00 | 93 | 1028.4 |
| 20260906045039 | 8 | 263 | 0.0 | 0.0 | 0.00 | 0.00 | 0.00 | 93 | 1028.4 |
| 20260906044537 | 8 | 263 | 0.0 | 0.0 | 0.00 | 0.00 | 0.00 | 93 | 1028.5 |
| 20260906044037 | 7 | 263 | 0.0 | 0.0 | 0.00 | 0.00 | 0.00 | 93 | 1028.5 |
| 20260906043536 | 7 | 263 | 0.0 | 0.0 | 0.00 | 0.00 | 0.00 | 93 | 1028.4 |
| 20260906043035 | 8 | 263 | 0.0 | 0.0 | 0.00 | 0.00 | 0.00 | 93 | 1028.2 |
| 20260906042534 | 8 | 263 | 0.0 | 0.0 | 0.00 | 0.00 | 0.00 | 93 | 1028.2 |
| 20260906042036 | 7 | 263 | 0.0 | 0.0 | 0.00 | 0.00 | 0.00 | 93 | 1028.0 |
| 20260906041535 | 8 | 263 | 0.0 | 0.0 | 0.00 | 0.00 | 0.00 | 93 | 1028.3 |
| 20260906041033 | 8 | 263 | 0.0 | 0.0 | 0.00 | 0.00 | 0.00 | 93 | 1028.3 |
| 20260906040533 | 7 | 263 | 0.0 | 0.0 | 0.00 | 0.00 | 0.00 | 93 | 1028.2 |
| 20260906040038 | 8 | 263 | 0.0 | 0.0 | 0.00 | 0.00 | 0.00 | 93 | 1028.1 |
| 20260906035532 | 8 | 263 | 0.0 | 0.0 | 0.00 | 0.00 | 0.00 | 93 | 1028.1 |
| 20260906035031 | 8 | 263 | 0.0 | 0.0 | 0.00 | 0.00 | 0.00 | 93 | 1028.0 |
| 20260906034540 | 8 | 263 | 0.0 | 0.0 | 0.00 | 0.00 | 0.00 | 93 | 1028.1 |
| 20260906034032 | 8 | 263 | 0.0 | 0.0 | 0.00 | 0.00 | 0.00 | 92 | 1028.2 |
| 20260906033529 | 8 | 263 | 0.0 | 0.0 | 0.00 | 0.00 | 0.00 | 93 | 1028.0 |
| 20260906033030 | 8 | 263 | 0.0 | 0.0 | 0.00 | 0.00 | 0.00 | 93 | 1028.0 |
| 20260906032533 | 8 | 263 | 0.0 | 0.0 | 0.00 | 0.00 | 0.00 | 93 | 1028.0 |
| 20260906032028 | 8 | 263 | 0.0 | 0.0 | 0.00 | 0.00 | 0.00 | 93 | 1028.0 |
| 20260906031532 | 8 | 263 | 0.0 | 0.0 | 0.00 | 0.00 | 0.00 | 92 | 1027.9 |
| 20260906031029 | 9 | 263 | 0.0 | 0.0 | 0.00 | 0.00 | 0.00 | 93 | 1027.9 |
| 20260906030528 | 9 | 263 | 0.0 | 3.2 | 0.00 | 0.00 | 0.00 | 93 | 1027.9 |
| 20260906030027 | 9 | 263 | 0.0 | 3.2 | 0.00 | 0.00 | 0.00 | 93 | 1028.1 |
| 20260906025529 | 9 | 263 | 0.0 | 3.2 | 0.00 | 0.00 | 0.00 | 93 | 1028.1 |
| 20260906025028 | 8 | 263 | 0.0 | 0.0 | 0.00 | 0.00 | 0.00 | 92 | 1028.1 |
| 20260906024526 | 8 | 263 | 0.0 | 0.0 | 0.00 | 0.00 | 0.00 | 92 | 1028.0 |
| 20260906024024 | 9 | 263 | 0.0 | 0.0 | 0.00 | 0.00 | 0.00 | 92 | 1028.0 |
| 20260906023526 | 10 | 263 | 0.0 | 0.0 | 0.00 | 0.00 | 0.00 | 92 | 1028.1 |
| 20260906023022 | 10 | 263 | 0.0 | 0.0 | 0.00 | 0.00 | 0.00 | 92 | 1027.9 |
| 20260906022522 | 10 | 263 | 0.0 | 0.0 | 0.00 | 0.00 | 0.00 | 92 | 1027.9 |
| 20260906022022 | 10 | 263 | 0.0 | 0.0 | 0.00 | 0.00 | 0.00 | 92 | 1027.9 |
| 20260906021522 | 9 | 263 | 0.0 | 0.0 | 0.00 | 0.00 | 0.00 | 91 | 1028.0 |
| 20260906021024 | 10 | 263 | 0.0 | 1.6 | 0.00 | 0.00 | 0.00 | 91 | 1027.9 |
| 20260906020521 | 10 | 263 | 0.0 | 4.8 | 0.00 | 0.00 | 0.00 | 91 | 1027.9 |
| 20260906020021 | 10 | 263 | 1.6 | 4.8 | 0.00 | 0.00 | 0.00 | 91 | 1027.8 |
| 20260906015520 | 10 | 266 | 0.0 | 3.2 | 0.00 | 0.00 | 0.00 | 92 | 1027.9 |
| 20260906015020 | 10 | 266 | 0.0 | 3.2 | 0.00 | 0.00 | 0.00 | 92 | 1027.8 |
| 20260906014523 | 10 | 266 | 0.0 | 3.2 | 0.00 | 0.00 | 0.00 | 92 | 1027.9 |
| 20260906014019 | 10 | 266 | 0.0 | 1.6 | 0.00 | 0.00 | 0.00 | 92 | 1027.8 |
| 20260906013518 | 10 | 266 | 0.0 | 1.6 | 0.00 | 0.00 | 0.00 | 92 | 1027.7 |
| 20260906013026 | 10 | 266 | 0.0 | 0.0 | 0.00 | 0.00 | 0.00 | 92 | 1027.6 |
| 20260906012517 | 10 | 266 | 0.0 | 0.0 | 0.00 | 0.00 | 0.00 | 91 | 1027.7 |
| 20260906012017 | 9 | 266 | 0.0 | 0.0 | 0.00 | 0.00 | 0.00 | 91 | 1027.6 |
| 20260906011520 | 10 | 266 | 0.0 | 0.0 | 0.00 | 0.00 | 0.00 | 91 | 1027.6 |
| 20260906011016 | 10 | 266 | 0.0 | 0.0 | 0.00 | 0.00 | 0.00 | 91 | 1027.6 |
| 20260906010515 | 10 | 266 | 0.0 | 0.0 | 0.00 | 0.00 | 0.00 | 91 | 1027.6 |
| 20260906010016 | 10 | 266 | 0.0 | 1.6 | 0.00 | 0.00 | 0.00 | 91 | 1027.6 |
| 20260906005518 | 10 | 266 | 0.0 | 1.6 | 0.00 | 0.05 | 0.00 | 90 | 1027.6 |
| 20260906005013 | 10 | 266 | 0.0 | 3.2 | 0.00 | 0.05 | 0.00 | 90 | 1027.4 |
| 20260906004511 | 11 | 266 | 0.0 | 4.8 | 0.00 | 0.05 | 0.00 | 90 | 1027.4 |
| 20260906004014 | 11 | 266 | 1.6 | 4.8 | 0.00 | 0.05 | 0.00 | 90 | 1027.3 |
| 20260906003511 | 11 | 266 | 0.0 | 0.0 | 0.00 | 0.05 | 0.00 | 89 | 1027.4 |
| 20260906003011 | 11 | 266 | 0.0 | 0.0 | 0.00 | 0.05 | 0.00 | 89 | 1027.5 |
| 20260906002510 | 11 | 266 | 0.0 | 3.2 | 0.00 | 0.05 | 0.00 | 88 | 1027.4 |
| 20260906002009 | 11 | 266 | 0.0 | 3.2 | 0.00 | 0.05 | 0.00 | 87 | 1027.4 |
| 20260906001508 | 11 | 266 | 1.6 | 3.2 | 0.00 | 0.05 | 0.00 | 86 | 1027.3 |
| 20260906001007 | 12 | 266 | 0.0 | 0.0 | 0.00 | 0.05 | 0.00 | 85 | 1027.4 |
| 20260906000507 | 12 | 267 | 0.0 | 3.2 | 0.00 | 0.05 | 0.00 | 86 | 1027.4 |
| 20260906000007 | 12 | 267 | 1.6 | 3.2 | 0.00 | 0.05 | 0.00 | 86 | 1027.4 |
| 20260905235506 | 12 | 266 | 0.0 | 0.0 | 0.00 | 0.05 | 0.00 | 86 | 1027.4 |
| 20260905235006 | 12 | 267 | 0.0 | 0.0 | 0.00 | 0.05 | 0.00 | 86 | 1027.5 |
| 20260905234505 | 12 | 267 | 0.0 | 1.6 | 0.00 | 0.05 | 0.00 | 86 | 1027.4 |
| 20260905234005 | 12 | 266 | 0.0 | 3.2 | 0.00 | 0.05 | 0.00 | 85 | 1027.4 |
| 20260905233505 | 12 | 266 | 0.0 | 3.2 | 0.00 | 0.05 | 0.00 | 85 | 1027.3 |
| 20260905233012 | 12 | 266 | 1.6 | 3.2 | 0.00 | 0.05 | 0.00 | 87 | 1027.3 |
| 20260905232507 | 12 | 267 | 0.0 | 0.0 | 0.00 | 0.05 | 0.00 | 86 | 1027.4 |
| 20260905232004 | 12 | 267 | 0.0 | 0.0 | 0.00 | 0.05 | 0.00 | 86 | 1027.3 |
| 20260905231503 | 12 | 266 | 0.0 | 1.6 | 0.00 | 0.05 | 0.00 | 85 | 1027.2 |
| 20260905231002 | 12 | 267 | 0.0 | 4.8 | 0.00 | 0.05 | 0.00 | 85 | 1027.1 |
| 20260905230502 | 12 | 266 | 1.6 | 4.8 | 0.00 | 0.05 | 0.00 | 85 | 1027.1 |
| 20260905230002 | 12 | 266 | 0.0 | 0.0 | 0.00 | 0.05 | 0.00 | 86 | 1027.0 |
| 20260905225501 | 12 | 266 | 0.0 | 1.6 | 0.00 | 0.08 | 0.00 | 86 | 1027.2 |
| 20260905225001 | 12 | 266 | 0.0 | 6.4 | 0.00 | 0.08 | 0.00 | 86 | 1027.1 |
| 20260905224501 | 12 | 264 | 0.0 | 6.4 | 0.00 | 0.08 | 0.00 | 85 | 1027.1 |
| 20260905224100 | 12 | 263 | 0.0 | 0.0 | 0.00 | 0.08 | 0.00 | 85 | 1027.1 |
| 20260905223559 | 12 | 263 | 0.0 | 0.0 | 0.00 | 0.08 | 0.00 | 84 | 1027.0 |
| 20260905223059 | 12 | 263 | 0.0 | 4.8 | 0.00 | 0.08 | 0.00 | 85 | 1027.0 |
| 20260905222600 | 12 | 263 | 0.0 | 0.0 | 0.00 | 0.08 | 0.00 | 85 | 1026.9 |
| 20260905222100 | 12 | 263 | 0.0 | 1.6 | 0.00 | 0.08 | 0.00 | 85 | 1026.8 |
| 20260905221601 | 12 | 263 | 0.0 | 3.2 | 0.00 | 0.08 | 0.00 | 84 | 1026.8 |
| 20260905221059 | 12 | 263 | 0.0 | 3.2 | 0.00 | 0.08 | 0.00 | 84 | 1026.7 |
| 20260905220555 | 12 | 263 | 0.0 | 1.6 | 0.00 | 0.08 | 0.00 | 85 | 1026.7 |
| 20260905220055 | 12 | 263 | 0.0 | 0.0 | 0.00 | 0.08 | 0.00 | 85 | 1026.7 |
| 20260905215554 | 12 | 263 | 0.0 | 0.0 | 0.00 | 0.10 | 0.08 | 84 | 1026.6 |
| 20260905215057 | 13 | 263 | 0.0 | 1.6 | 0.00 | 0.10 | 0.08 | 83 | 1026.4 |
| 20260905214550 | 13 | 263 | 0.0 | 1.6 | 0.00 | 0.10 | 0.08 | 82 | 1026.4 |
| 20260905214049 | 13 | 263 | 0.0 | 4.8 | 0.00 | 0.10 | 0.08 | 81 | 1026.4 |
| 20260905213549 | 13 | 263 | 1.6 | 4.8 | 0.00 | 0.10 | 0.08 | 81 | 1026.2 |
| 20260905213048 | 13 | 263 | 0.0 | 0.0 | 0.00 | 0.10 | 0.08 | 81 | 1026.2 |
| 20260905212548 | 13 | 263 | 0.0 | 0.0 | 0.00 | 0.10 | 0.08 | 81 | 1026.1 |
| 20260905212047 | 13 | 263 | 0.0 | 0.0 | 0.00 | 0.10 | 0.08 | 81 | 1026.0 |
| 20260905211554 | 13 | 263 | 0.0 | 0.0 | 0.00 | 0.10 | 0.08 | 80 | 1026.0 |
| 20260905211047 | 13 | 263 | 0.0 | 0.0 | 0.00 | 0.10 | 0.08 | 80 | 1025.9 |
| 20260905210546 | 13 | 263 | 0.0 | 0.0 | 0.00 | 0.10 | 0.08 | 80 | 1025.9 |
| 20260905210047 | 14 | 263 | 0.0 | 0.0 | 0.00 | 0.10 | 0.08 | 79 | 1025.8 |
| 20260905205546 | 14 | 263 | 0.0 | 0.0 | 0.00 | 0.15 | 0.08 | 79 | 1025.9 |
| 20260905205047 | 14 | 263 | 0.0 | 0.0 | 0.00 | 0.15 | 0.08 | 77 | 1025.9 |
| 20260905204545 | 15 | 263 | 0.0 | 0.0 | 0.00 | 0.15 | 0.08 | 78 | 1025.9 |
| 20260905204045 | 15 | 263 | 0.0 | 0.0 | 0.00 | 0.15 | 0.08 | 77 | 1025.8 |
| 20260905203548 | 15 | 263 | 0.0 | 0.0 | 0.00 | 0.15 | 0.08 | 77 | 1025.8 |
| 20260905203052 | 15 | 263 | 0.0 | 1.6 | 0.00 | 0.15 | 0.08 | 76 | 1025.7 |
| 20260905202543 | 15 | 263 | 0.0 | 0.0 | 0.00 | 0.15 | 0.08 | 75 | 1025.7 |
| 20260905202042 | 15 | 263 | 0.0 | 0.0 | 0.00 | 0.15 | 0.08 | 74 | 1025.6 |
| 20260905201542 | 15 | 263 | 0.0 | 0.0 | 0.00 | 0.15 | 0.08 | 73 | 1025.6 |
| 20260905201041 | 16 | 263 | 0.0 | 3.2 | 0.00 | 0.15 | 0.08 | 72 | 1025.5 |
| 20260905200541 | 16 | 263 | 0.0 | 3.2 | 0.00 | 0.15 | 0.08 | 72 | 1025.4 |
| 20260905200041 | 16 | 263 | 0.0 | 1.6 | 0.00 | 0.15 | 0.08 | 71 | 1025.4 |
| 20260905195540 | 16 | 263 | 0.0 | 3.2 | 0.00 | 0.28 | 0.08 | 70 | 1025.1 |
| 20260905195044 | 16 | 263 | 0.0 | 3.2 | 0.00 | 0.28 | 0.08 | 69 | 1025.2 |
| 20260905194539 | 16 | 263 | 1.6 | 3.2 | 0.00 | 0.28 | 0.08 | 68 | 1025.2 |
| 20260905194038 | 17 | 263 | 1.6 | 3.2 | 0.00 | 0.28 | 0.08 | 68 | 1025.0 |
| 20260905193538 | 17 | 263 | 0.0 | 4.8 | 0.00 | 0.28 | 0.08 | 67 | 1025.0 |